Location: Lancaster
(54.0470°N, 2.8020°W)
Time: 20:41:06
(UTC+01:00)

COSMOS 2428 - Visible Passes

Search period start: 25 October 2014 00:00
Search period end: 03 November 2014 23:00
Orbit: 842 x 859 km, 71.0° (Epoch: 25 October)

Date Brightness Start Highest point End Pass type
(mag) Time Alt. Az. Time Alt. Az. Time Alt. Az.
25 Oct 3.0 19:23:56 10° SW 19:29:39 72° NW 19:35:25 10° NNE visible
25 Oct 4.7 21:10:19 10° W 21:14:55 24° NNW 21:19:16 11° NNE visible
25 Oct 5.2 22:58:14 10° NW 23:01:16 15° N 23:01:16 15° N visible
26 Oct 3.0 18:11:40 10° SW 18:17:22 72° NW 18:23:09 10° NNE visible
26 Oct 4.7 19:58:02 10° W 20:02:39 24° NNW 20:07:09 10° NNE visible
26 Oct 5.2 21:45:57 10° NW 21:49:06 15° N 21:49:09 15° N visible
27 Oct 3.0 17:59:23 10° SW 18:05:06 73° NW 18:10:52 10° NNE visible
27 Oct 4.7 19:45:46 10° W 19:50:22 24° NNW 19:55:00 10° NNE visible
27 Oct 5.2 21:33:40 10° NW 21:36:49 15° N 21:37:02 15° N visible
28 Oct 3.0 17:47:07 10° SW 17:52:49 73° NW 17:58:36 10° NNE visible
28 Oct 4.7 19:33:29 10° W 19:38:05 24° NNW 19:42:43 10° NNE visible
28 Oct 5.1 21:21:24 10° NW 21:24:32 15° N 21:24:55 15° N visible
29 Oct 3.0 17:34:50 10° SW 17:40:33 73° NW 17:46:19 10° NNE visible
29 Oct 4.7 19:21:12 10° W 19:25:49 24° NNW 19:30:27 10° NNE visible
29 Oct 5.1 21:09:07 10° NW 21:12:16 15° N 21:12:48 15° N visible
30 Oct 3.0 17:22:33 10° SW 17:28:16 73° NW 17:34:02 10° NNE visible
30 Oct 4.7 19:08:55 10° W 19:13:32 24° NNW 19:18:10 10° NNE visible
30 Oct 5.1 20:56:50 10° NW 20:59:59 15° N 21:00:40 14° N visible
30 Oct 5.6 22:42:31 10° NNW 22:42:40 11° NNW 22:42:40 11° NNW visible
31 Oct 3.0 17:10:16 10° SW 17:16:00 73° NW 17:21:46 10° NNE visible
31 Oct 4.6 18:56:39 10° W 19:01:15 24° NNW 19:05:54 10° NNE visible
31 Oct 5.0 20:44:33 10° NW 20:47:42 15° N 20:48:33 14° N visible
31 Oct 5.6 22:30:14 10° NNW 22:30:33 11° NNW 22:30:33 11° NNW visible
01 Nov 4.6 18:44:22 10° W 18:48:59 24° NNW 18:53:37 10° NNE visible
01 Nov 5.0 20:32:16 10° NW 20:35:25 15° N 20:36:26 14° N visible
01 Nov 5.5 22:17:57 10° NNW 22:18:25 12° NNW 22:18:25 12° NNW visible
02 Nov 4.6 18:32:05 10° W 18:36:42 24° NNW 18:41:20 10° NNE visible
02 Nov 5.0 20:19:59 10° NW 20:23:08 15° N 20:24:19 14° N visible
02 Nov 5.5 22:05:40 10° NNW 22:06:18 12° NNW 22:06:18 12° NNW visible
03 Nov 4.6 18:19:48 10° W 18:24:25 24° NNW 18:29:03 10° NNE visible
03 Nov 5.0 20:07:42 10° NW 20:10:51 15° N 20:12:12 14° NNE visible
03 Nov 5.4 21:53:24 10° NNW 21:54:11 13° NNW 21:54:11 13° NNW visible
